Total_Precipitation_Accumulation
0.23 0.29 0.45 0.38 0.22 0.21 0.35 0.28 0.27 0.16 0.16 0.19 0.19 0.24 0.26 0.23 0.20 0.19 0.19 0.20 0.22 0.23 0.23 0.24 0.25 0.26 0.27 0.28 0.34 0.39 0.40 0.39 0.38 0.38 0.40 0.42 0.43 0.44 0.43 0.44 0.44 0.47 0.53 0.61
0.30 0.28 0.38 0.31 0.15 0.14 0.15 0.13 0.13 0.12 0.16 0.15 0.19 0.24 0.27 0.25 0.19 0.15 0.14 0.15 0.16 0.18 0.19 0.20 0.22 0.24 0.28 0.32 0.40 0.45 0.47 0.43 0.40 0.38 0.38 0.36 0.34 0.34 0.35 0.36 0.37 0.40 0.45 0.49
0.49 0.24 0.29 0.25 0.14 0.13 0.12 0.09 0.10 0.15 0.14 0.14 0.21 0.25 0.23 0.18 0.13 0.11 0.11 0.12 0.13 0.14 0.16 0.19 0.25 0.30 0.36 0.40 0.47 0.48 0.51 0.47 0.42 0.38 0.37 0.34 0.31 0.31 0.33 0.35 0.38 0.42 0.44 0.48
0.62 0.39 0.39 0.24 0.17 0.15 0.12 0.09 0.07 0.08 0.08 0.09 0.13 0.15 0.13 0.10 0.09 0.08 0.07 0.08 0.08 0.10 0.12 0.13 0.18 0.26 0.33 0.40 0.51 0.54 0.53 0.51 0.50 0.49 0.50 0.52 0.51 0.52 0.52 0.51 0.53 0.58 0.63 0.66
0.47 0.35 0.18 0.09 0.10 0.12 0.13 0.11 0.06 0.06 0.05 0.04 0.06 0.12 0.17 0.14 0.11 0.08 0.06 0.05 0.06 0.06 0.08 0.08 0.11 0.17 0.25 0.38 0.53 0.64 0.69 0.68 0.68 0.72 0.77 0.80 0.82 0.81 0.80 0.81 0.81 0.79 0.77 0.73
0.36 0.30 0.12 0.06 0.03 0.03 0.05 0.10 0.04 0.02 0.03 0.02 0.04 0.10 0.16 0.17 0.14 0.12 0.10 0.08 0.07 0.07 0.09 0.11 0.13 0.20 0.33 0.49 0.63 0.73 0.76 0.80 0.83 0.89 0.96 0.93 0.91 0.88 0.81 0.75 0.74 0.73 0.71 0.67
0.29 0.26 0.06 0.02 0.01 0.01 0.07 0.10 0.03 0.02 0.02 0.02 0.04 0.06 0.07 0.11 0.15 0.15 0.16 0.18 0.18 0.18 0.21 0.23 0.26 0.35 0.49 0.60 0.68 0.71 0.71 0.72 0.75 0.74 0.76 0.74 0.72 0.69 0.64 0.57 0.51 0.46 0.43 0.40
0.15 0.23 0.10 0.03 0.02 0.04 0.06 0.04 0.02 0.02 0.03 0.04 0.04 0.03 0.04 0.05 0.08 0.12 0.16 0.22 0.29 0.35 0.37 0.38 0.40 0.47 0.54 0.55 0.55 0.53 0.50 0.48 0.45 0.41 0.38 0.38 0.39 0.40 0.39 0.35 0.30 0.27 0.24 0.23
0.10 0.13 0.07 0.04 0.04 0.04 0.04 0.03 0.03 0.03 0.03 0.03 0.03 0.03 0.02 0.02 0.03 0.05 0.07 0.10 0.14 0.20 0.24 0.25 0.25 0.28 0.30 0.27 0.23 0.20 0.17 0.15 0.14 0.12 0.12 0.13 0.13 0.14 0.17 0.19 0.18 0.17 0.17 0.18
0.08 0.07 0.04 0.04 0.04 0.04 0.03 0.03 0.04 0.03 0.03 0.03 0.04 0.03 0.03 0.03 0.02 0.03 0.03 0.04 0.04 0.06 0.07 0.07 0.08 0.09 0.09 0.08 0.06 0.05 0.04 0.04 0.05 0.05 0.06 0.07 0.08 0.09 0.11 0.13 0.13 0.15 0.16 0.16
0.07 0.04 0.03 0.03 0.03 0.02 0.02 0.02 0.02 0.02 0.02 0.03 0.04 0.05 0.05 0.05 0.04 0.03 0.03 0.03 0.04 0.04 0.04 0.05 0.05 0.05 0.06 0.06 0.06 0.06 0.05 0.05 0.06 0.06 0.07 0.07 0.08 0.09 0.11 0.12 0.14 0.17 0.19 0.20
0.10 0.05 0.05 0.03 0.02 0.02 0.02 0.01 0.02 0.02 0.03 0.03 0.03 0.05 0.04 0.04 0.04 0.05 0.05 0.05 0.05 0.05 0.06 0.07 0.08 0.08 0.09 0.10 0.10 0.10 0.09 0.09 0.09 0.09 0.10 0.10 0.11 0.11 0.13 0.15 0.17 0.20 0.21 0.22
0.05 0.04 0.03 0.02 0.01 0.01 0.02 0.02 0.03 0.02 0.02 0.02 0.02 0.02 0.03 0.04 0.05 0.05 0.06 0.07 0.07 0.08 0.08 0.08 0.08 0.08 0.09 0.11 0.13 0.14 0.15 0.16 0.16 0.16 0.15 0.15 0.16 0.16 0.17 0.18 0.20 0.21 0.22 0.24
0.02 0.03 0.03 0.02 0.02 0.02 0.02 0.03 0.03 0.03 0.03 0.02 0.02 0.02 0.02 0.02 0.03 0.05 0.06 0.07 0.07 0.07 0.08 0.08 0.08 0.08 0.09 0.10 0.12 0.13 0.15 0.20 0.22 0.21 0.23 0.24 0.24 0.24 0.25 0.25 0.25 0.23 0.24 0.29
0.02 0.03 0.05 0.05 0.05 0.04 0.04 0.04 0.05 0.05 0.05 0.04 0.04 0.04 0.04 0.03 0.03 0.04 0.05 0.06 0.06 0.07 0.07 0.07 0.07 0.08 0.10 0.11 0.13 0.13 0.14 0.17 0.20 0.23 0.25 0.27 0.28 0.29 0.29 0.28 0.26 0.24 0.24 0.28
0.06 0.05 0.05 0.06 0.07 0.08 0.07 0.06 0.06 0.06 0.06 0.06 0.06 0.06 0.06 0.05 0.05 0.06 0.06 0.06 0.07 0.07 0.07 0.09 0.10 0.11 0.12 0.13 0.15 0.15 0.16 0.21 0.23 0.24 0.25 0.28 0.30 0.30 0.30 0.29 0.28 0.26 0.24 0.24
0.15 0.12 0.12 0.12 0.11 0.11 0.11 0.10 0.09 0.09 0.09 0.09 0.08 0.07 0.07 0.06 0.06 0.06 0.07 0.07 0.07 0.08 0.09 0.11 0.12 0.13 0.14 0.15 0.17 0.18 0.19 0.23 0.28 0.26 0.24 0.26 0.30 0.31 0.31 0.30 0.29 0.26 0.23 0.27
0.17 0.18 0.19 0.21 0.21 0.19 0.16 0.15 0.13 0.12 0.11 0.11 0.10 0.09 0.08 0.08 0.08 0.08 0.08 0.09 0.09 0.10 0.10 0.11 0.12 0.13 0.13 0.15 0.19 0.21 0.22 0.23 0.26 0.27 0.28 0.30 0.34 0.34 0.34 0.34 0.33 0.32 0.30 0.33
0.17 0.18 0.18 0.20 0.22 0.22 0.21 0.20 0.18 0.17 0.15 0.13 0.12 0.11 0.11 0.10 0.10 0.10 0.10 0.11 0.11 0.11 0.11 0.12 0.15 0.15 0.15 0.17 0.23 0.23 0.24 0.25 0.27 0.29 0.31 0.37 0.39 0.35 0.36 0.37 0.37 0.38 0.38 0.39
0.18 0.18 0.18 0.20 0.23 0.23 0.23 0.22 0.21 0.20 0.18 0.17 0.16 0.14 0.13 0.13 0.14 0.13 0.12 0.12 0.13 0.15 0.14 0.15 0.16 0.15 0.16 0.19 0.24 0.25 0.25 0.28 0.30 0.31 0.33 0.36 0.37 0.36 0.36 0.37 0.39 0.41 0.41 0.41
0.21 0.19 0.19 0.19 0.22 0.23 0.22 0.22 0.22 0.23 0.23 0.21 0.20 0.19 0.17 0.17 0.17 0.17 0.17 0.15 0.14 0.14 0.15 0.16 0.16 0.17 0.21 0.26 0.29 0.27 0.28 0.30 0.32 0.33 0.35 0.36 0.37 0.36 0.36 0.37 0.39 0.39 0.40 0.39
0.21 0.21 0.20 0.20 0.22 0.24 0.24 0.23 0.22 0.23 0.22 0.21 0.21 0.21 0.20 0.19 0.18 0.17 0.16 0.17 0.16 0.18 0.19 0.16 0.17 0.23 0.30 0.33 0.30 0.28 0.31 0.33 0.35 0.37 0.38 0.37 0.37 0.37 0.37 0.38 0.39 0.38 0.38 0.40
0.20 0.20 0.19 0.18 0.18 0.18 0.19 0.19 0.20 0.21 0.22 0.23 0.23 0.23 0.21 0.20 0.19 0.19 0.18 0.15 0.16 0.18 0.20 0.19 0.23 0.31 0.35 0.34 0.31 0.33 0.37 0.38 0.38 0.39 0.39 0.39 0.40 0.41 0.41 0.40 0.40 0.40 0.40 0.40
0.13 0.13 0.14 0.13 0.13 0.13 0.15 0.16 0.16 0.17 0.18 0.18 0.17 0.17 0.17 0.16 0.15 0.14 0.15 0.16 0.18 0.21 0.21 0.22 0.27 0.30 0.31 0.31 0.32 0.37 0.39 0.39 0.39 0.39 0.39 0.39 0.39 0.39 0.39 0.39 0.38 0.36 0.36 0.36
0.10 0.10 0.09 0.09 0.09 0.09 0.09 0.10 0.10 0.11 0.13 0.13 0.13 0.12 0.13 0.14 0.16 0.15 0.14 0.14 0.16 0.19 0.20 0.21 0.24 0.26 0.27 0.28 0.32 0.35 0.36 0.37 0.40 0.41 0.40 0.39 0.38 0.38 0.36 0.36 0.36 0.36 0.34 0.34
0.10 0.09 0.08 0.08 0.07 0.07 0.07 0.07 0.07 0.07 0.09 0.11 0.11 0.12 0.13 0.15 0.15 0.16 0.16 0.15 0.16 0.19 0.20 0.20 0.21 0.23 0.25 0.27 0.29 0.30 0.31 0.32 0.34 0.34 0.34 0.35 0.35 0.35 0.33 0.32 0.32 0.33 0.33 0.33
0.06 0.06 0.05 0.05 0.05 0.05 0.05 0.06 0.06 0.06 0.07 0.09 0.11 0.12 0.13 0.15 0.15 0.15 0.15 0.16 0.17 0.18 0.18 0.19 0.20 0.22 0.24 0.25 0.26 0.26 0.26 0.27 0.28 0.29 0.30 0.31 0.31 0.30 0.29 0.30 0.31 0.31 0.31 0.31